📊 Raw Sensor Data

Showing records 35426 to 35450 of 84,877 total

ID Distance (ft) Battery V Battery A Int Temp (°F) Int Humid (%) Ext Temp (°F) Solar V RSSI SNR Time Stamp
49464 15.8 3.83 0 91 42 82 5.10 -69 8 08/17/2025 02:30 PM
49463 15.8 3.83 0 90 42 80 5.10 -69 8 08/17/2025 02:15 PM
49462 15.7 4.08 0 89 42 81 5.10 -69 8 08/17/2025 02:00 PM
49461 15.7 3.83 0 88 42 81 5.10 -69 8 08/17/2025 01:45 PM
49460 15.7 3.94 0 87 42 80 5.10 -69 7 08/17/2025 01:30 PM
49459 15.7 3.84 0 86 42 79 5.10 -70 8 08/17/2025 01:15 PM
49458 15.8 3.83 0 85 43 79 5.10 -71 6 08/17/2025 01:00 PM
49457 15.7 3.83 0 85 43 79 5.10 -70 8 08/17/2025 12:45 PM
49456 15.8 4.00 0 84 43 78 5.10 -71 7 08/17/2025 12:30 PM
49455 15.7 3.83 0 83 43 79 5.10 -70 8 08/17/2025 12:15 PM
49454 15.8 4.03 0 83 43 79 5.10 -71 8 08/17/2025 12:00 PM
49453 15.7 3.83 0 82 43 80 5.10 -69 8 08/17/2025 11:45 AM
49452 15.8 3.83 0 82 42 79 5.10 -70 8 08/17/2025 11:30 AM
49451 15.8 3.83 0 81 42 82 5.10 -69 7 08/17/2025 11:15 AM
49450 15.8 3.91 0 79 42 79 5.10 -70 7 08/17/2025 11:00 AM
49449 15.8 3.83 0 78 43 80 5.10 -70 8 08/17/2025 10:45 AM
49448 15.6 3.83 0 77 42 77 5.10 -69 7 08/17/2025 10:30 AM
49447 15.8 3.83 0 76 42 76 5.10 -71 8 08/17/2025 10:15 AM
49446 15.8 3.85 0 75 42 77 5.10 -69 8 08/17/2025 10:00 AM
49445 15.8 3.84 0 73 43 75 5.10 -68 8 08/17/2025 09:45 AM
49444 15.6 4.08 0 72 43 75 5.10 -72 8 08/17/2025 09:30 AM
49443 15.7 3.99 0 70 43 74 5.10 -69 8 08/17/2025 09:15 AM
49442 15.8 3.84 0 69 43 72 5.10 -70 8 08/17/2025 09:00 AM
49441 15.8 3.84 0 69 43 72 5.10 -70 8 08/17/2025 08:45 AM
49440 15.7 3.84 0 68 44 71 5.10 -71 7 08/17/2025 08:30 AM